Vorticity
nan nan nan nan nan nan nan nan nan nan nan nan nan nan nan nan nan nan nan nan nan nan
nan 9 9 10 9 8 11 9 6 7 8 8 8 8 9 10 9 8 8 8 9 nan
nan 9 8 7 8 10 9 8 7 7 7 8 8 8 9 9 8 9 9 8 8 nan
nan 8 8 9 8 7 6 8 8 8 8 8 8 8 9 9 8 7 9 9 8 nan
nan 8 8 8 8 8 9 7 6 7 8 8 8 7 9 9 9 8 9 9 9 nan
nan 8 9 9 9 7 8 6 6 8 8 8 8 9 9 9 8 9 10 9 9 nan
nan 8 9 9 9 8 8 8 9 7 8 9 7 8 11 8 9 9 9 10 9 nan
nan 9 9 9 8 8 8 8 9 8 8 8 8 14 12 8 8 9 9 10 10 nan
nan 8 8 9 9 9 8 9 8 8 8 8 15 16 5 6 7 9 9 9 12 nan
nan 8 8 8 8 9 9 9 9 9 10 10 16 11 4 4 5 9 10 10 9 nan
nan 8 8 8 9 9 9 10 10 10 9 8 17 14 4 3 6 9 10 10 10 nan
nan 8 8 9 9 9 10 9 10 11 10 9 16 12 3 2 7 10 11 10 9 nan
nan 10 8 10 10 9 10 10 9 10 11 9 14 16 3 2 6 10 10 9 8 nan
nan nan nan nan nan nan nan nan nan nan nan nan nan nan nan nan nan nan nan nan nan nan
CAPE
0 0 0 0 0 0 0 0 0 0 0 0 0 0 0 0 0 0 0 0 0 0
0 0 0 0 0 0 0 0 0 0 0 0 0 0 0 0 0 0 0 0 0 0
0 0 0 0 0 0 0 0 0 0 0 0 0 0 0 0 0 0 0 0 0 0
0 0 0 0 0 0 0 0 0 0 0 0 0 0 0 0 0 0 0 0 0 0
0 0 0 0 0 0 0 0 0 0 0 0 0 0 0 0 0 0 0 0 0 0
0 0 0 0 0 0 0 0 0 0 0 0 0 0 0 0 0 0 0 0 0 0
0 0 0 0 0 0 0 0 0 0 0 0 0 0 0 0 0 0 0 0 0 0
0 0 0 0 0 0 0 0 0 0 0 0 0 0 0 0 0 0 0 0 0 0
0 0 0 0 0 0 0 0 0 0 0 0 0 0 0 0 0 0 0 0 0 0
0 0 0 0 0 0 0 0 0 0 0 0 0 0 0 0 0 0 0 0 0 0
0 0 0 0 0 0 0 0 0 0 0 0 0 0 0 0 0 0 0 0 0 0
0 0 0 0 0 0 0 0 0 0 0 0 0 0 0 0 0 0 0 0 0 0
0 0 0 0 0 0 0 0 0 0 0 0 0 0 0 0 0 0 0 0 0 0
0 0 0 0 0 0 0 0 0 0 0 0 0 0 0 0 0 0 0 0 0 0